TECHEDSAT 6

Last updated on Wed May 16 2018 00:15:07 GMT+0000 (Coordinated Universal Time)

1 43026U 98067NK 18135.04917276 .24108771 12366-4 25107-2 0 9998 2 43026 51.6059 164.5237 0004943 311.1143 50.3672 16.36895032 27437

Satellite not in orbit